{"data":{"norad_id":67496,"intl_designator":"2026-012D","name":"STARLINK-36534","alt_names":[],"object_type":"PAYLOAD","status":"ACTIVE","operator":null,"country":"US","launch_date":"2026-01-18","launch_site_code":"AFETR","launch_vehicle":null,"mission":null,"orbit_class":"UNKNOWN","rcs_meters":null,"size_class":null,"mass_kg":null,"dimensions":null,"purposes":["comms"],"wikipedia_slug":null,"has_3d_model":false,"image_url":null,"decayed_at":null,"tle_current":{"epoch":"2026-09-19T10:55:42.843936Z","epoch_age_seconds":162546,"freshness":"FRESH","line1":"1 67496U 26012D   26262.45535699  .00008857  00000+0  33101-3 0  9995","line2":"2 67496  42.9991 300.3107 0000788 235.6636 124.4141 15.27578482 37394","mean_motion":15.27578482,"eccentricity":7.88e-5,"inclination_deg":42.9991,"raan_deg":300.3107,"arg_perigee_deg":235.6636,"mean_anomaly_deg":124.4141,"bstar":0.00033101,"rev_number":3739,"period_min":94.266842389313,"perigee_km":482.51297965897,"apogee_km":483.59430330406,"semimajor_km":6861.1906414815,"source":"CELESTRAK","updated_at":"2026-09-20T09:00:43.556445Z"}}}